RH
48 46 49 48 38 20 12 6 5 5 5 5 6 8 8 13 48 67 32 13 12 12 13 12 12 11 10 10 10 13 17 19 19 22 16 11 11 12 10 10 11 9 7 10
50 45 40 48 53 44 26 17 15 10 6 6 5 5 5 6 9 12 10 10 26 56 68 74 75 68 58 57 47 40 38 35 37 39 43 46 47 44 42 35 27 32 23 34
52 45 41 39 46 52 47 32 20 15 15 12 9 8 7 6 6 5 6 7 12 15 16 16 17 19 21 24 28 28 30 31 31 28 26 27 27 28 26 25 24 23 27 23
57 61 55 48 42 48 51 46 34 21 16 14 14 13 11 12 12 10 8 6 5 6 6 8 8 9 10 10 12 15 18 22 25 29 32 33 35 35 35 35 34 32 34 33
58 61 63 66 60 53 48 50 41 30 32 36 34 28 21 15 13 12 12 11 9 9 7 6 6 6 6 6 6 6 8 11 17 20 28 32 34 35 37 37 37 36 34 36
28 53 60 57 72 70 60 50 38 32 27 28 38 47 42 37 22 18 17 14 12 11 10 10 10 10 10 8 8 8 9 13 18 21 24 27 33 32 34 37 39 38 37 37
20 33 60 80 82 78 84 69 54 47 40 45 38 52 53 52 52 38 19 16 15 16 14 13 16 15 14 14 18 20 18 18 21 29 34 36 35 40 40 38 37 37 37 37
25 14 38 76 84 85 79 76 68 58 54 48 42 40 49 56 57 54 47 29 19 18 15 15 18 24 31 32 34 41 47 48 46 43 42 41 44 43 41 38 37 37 35 34
53 53 27 81 83 72 74 75 71 65 63 59 50 40 46 48 52 60 62 57 54 46 35 30 20 19 37 47 47 46 48 48 49 49 46 40 47 40 41 37 35 28 28 24
85 73 80 88 84 87 76 79 83 78 71 69 62 51 46 51 53 53 62 64 61 61 60 53 46 44 48 51 50 54 56 57 56 55 49 44 61 47 34 27 24 23 20 21
85 84 76 83 86 86 91 85 84 92 84 83 76 69 59 48 46 48 52 59 60 60 60 62 64 59 52 49 54 61 66 61 58 52 52 51 55 48 39 32 26 23 25 25
88 86 84 84 83 82 85 88 88 92 87 88 84 77 73 67 62 51 46 50 79 76 71 71 65 65 61 66 60 70 62 58 57 55 56 65 61 48 44 37 32 35 34 36
82 74 75 81 81 77 72 75 77 78 70 72 72 81 74 60 56 59 58 56 84 81 82 70 73 66 64 63 57 63 59 59 53 64 54 64 61 51 46 42 38 39 37 38
87 88 85 85 84 73 69 71 71 75 67 55 68 84 84 76 68 72 77 76 80 94 98 84 72 69 73 62 63 55 62 68 84 64 66 80 63 64 56 54 53 53 52 52
91 86 91 88 83 90 84 83 94 97 93 69 61 68 77 86 91 99 99 100 100 100 99 96 86 85 93 79 70 56 76 80 90 76 95 92 67 69 73 70 67 64 60 58
100 98 96 96 96 95 100 97 100 100 100 89 72 66 85 92 96 100 100 100 100 99 100 92 88 92 100 89 67 60 76 99 100 98 92 78 71 77 77 71 65 64 60 55
96 96 99 99 100 100 100 100 100 100 100 99 82 66 56 80 99 100 100 100 100 100 93 81 85 89 100 92 65 82 88 100 100 99 88 80 86 74 71 71 68 66 60 57
98 94 90 92 94 94 97 100 98 100 100 98 94 73 63 65 68 86 96 100 100 98 98 86 87 98 100 87 70 82 92 100 100 95 95 82 77 77 72 68 68 68 64 60
75 83 89 92 90 85 84 85 90 98 96 95 87 74 72 69 67 75 84 100 100 100 94 92 100 98 85 79 94 95 100 100 100 100 95 87 78 72 74 72 69 64 61 55
26 30 25 30 41 55 67 66 63 69 72 59 78 84 78 83 87 88 93 100 100 100 97 100 100 98 97 100 100 100 100 100 99 96 90 87 85 82 76 67 63 59 47 35
6 5 6 6 6 5 7 8 9 10 15 16 14 18 31 51 59 74 100 100 100 100 94 98 100 89 92 100 100 100 100 100 100 100 100 95 85 76 68 60 54 43 32 21
9 10 10 9 9 8 7 7 6 6 7 10 14 21 32 54 75 94 100 100 100 100 96 100 100 99 100 100 100 100 100 100 100 92 86 78 68 60 51 42 30 10 5 4
16 16 16 15 16 17 13 12 13 20 44 73 75 68 74 83 100 100 100 100 100 100 100 100 100 100 100 100 99 98 100 98 90 81 73 66 57 34 14 13 7 21 41 49
18 17 18 32 20 18 24 41 64 87 91 90 89 100 100 100 100 100 100 100 100 100 100 100 98 94 91 90 81 75 74 74 75 72 60 40 22 25 55 100 98 100 74 23
18 20 28 41 66 96 93 100 100 100 100 100 91 73 77 100 100 100 99 100 100 100 100 94 93 100 100 100 97 93 81 72 63 41 31 29 35 29 17 19 23 20 13 9
28 25 38 100 100 100 100 100 100 100 100 100 100 100 100 100 100 100 100 100 100 96 100 100 100 100 100 100 100 85 62 42 32 33 33 28 22 15 9 7 8 9 9 8
34 46 80 100 100 100 100 100 94 83 85 99 100 100 100 100 96 83 88 86 87 87 91 94 91 64 37 34 34 34 35 38 36 29 22 15 11 12 11 10 11 16 14 15
Wind_Speed
16 17 19 19 17 14 13 12 12 13 14 14 13 12 11 9 6 3 1 1 4 5 7 8 10 12 13 14 15 16 16 17 17 18 18 18 18 19 20 21 20 21 23 18
9 13 14 15 16 15 12 11 10 9 9 9 9 9 8 7 6 5 4 3 3 4 6 6 7 9 10 11 13 14 16 16 17 18 19 20 20 22 24 24 26 25 30 26
10 8 11 12 12 13 13 10 8 9 10 9 9 9 9 9 9 8 7 5 5 6 7 7 8 9 10 11 13 13 14 16 16 17 17 18 20 23 24 25 26 29 25 30
16 16 13 13 15 14 14 13 11 11 9 11 14 15 12 12 13 13 13 12 12 12 12 12 12 13 14 15 15 15 15 15 16 17 16 15 17 20 22 23 26 29 27 26
20 24 22 21 18 19 21 19 19 16 14 15 17 18 20 23 20 17 16 16 18 18 19 20 21 22 22 22 23 23 23 23 22 23 23 21 22 26 26 26 30 31 32 30
32 28 30 28 27 24 24 24 22 21 22 23 23 22 24 23 24 26 26 24 23 23 23 24 25 25 26 27 28 28 28 29 28 25 27 26 25 28 32 32 32 35 33 35
39 38 37 38 37 34 31 29 29 28 27 27 26 23 24 25 27 29 30 30 30 31 30 29 29 29 29 30 31 32 32 33 35 32 34 30 29 30 34 35 36 37 37 39
49 48 47 44 41 40 38 35 34 34 33 31 30 30 27 27 29 30 30 33 36 35 36 38 37 34 35 34 35 35 35 36 38 36 37 36 30 35 35 36 33 42 45 42
54 55 56 50 43 42 41 40 40 42 39 37 38 37 35 34 34 34 34 36 37 39 40 42 43 42 39 39 36 35 37 38 40 41 41 37 33 34 39 45 44 45 43 44
59 56 58 53 50 45 45 46 46 46 46 42 44 43 41 40 38 39 40 42 45 44 43 45 45 45 47 46 42 39 41 43 44 45 46 42 42 45 46 45 48 49 48 48
64 61 59 58 56 54 50 51 51 51 51 50 48 48 48 47 46 44 45 47 45 48 50 50 48 49 48 49 49 49 47 47 47 49 50 50 49 52 54 54 55 56 55 54
66 65 64 63 61 61 60 60 58 57 55 54 54 55 55 56 55 54 54 50 50 51 51 54 56 55 54 51 51 49 50 51 52 51 51 51 53 56 57 58 59 57 56 56
72 74 71 72 69 68 65 65 66 68 64 61 60 58 60 61 60 58 59 57 53 55 55 55 58 59 58 57 56 54 51 52 56 52 53 53 56 60 60 62 62 60 61 62
78 76 74 73 71 68 70 67 66 67 69 68 64 64 62 60 62 61 57 58 59 57 57 58 58 62 63 61 60 59 59 59 52 56 57 58 61 60 62 61 63 63 64 65
72 74 74 73 74 72 70 68 63 64 67 69 66 65 63 61 59 58 56 54 56 58 58 59 59 60 63 65 66 66 61 60 59 57 60 64 65 65 63 64 66 66 68 68
67 68 68 67 67 67 68 69 66 62 62 67 69 64 56 58 61 61 59 58 60 61 63 63 65 66 68 70 69 67 64 59 61 63 64 66 67 67 68 69 70 71 73 73
75 75 74 73 72 71 71 71 72 69 70 72 74 71 65 62 60 62 64 65 66 67 68 68 66 68 70 71 71 64 63 60 62 65 69 68 69 71 74 74 75 75 76 76
79 81 81 80 78 78 76 74 77 75 76 78 80 77 74 73 74 73 70 68 67 68 69 71 72 72 73 76 72 66 64 63 66 69 71 73 75 76 76 77 76 76 77 77
65 67 70 75 77 78 77 75 76 74 72 73 82 83 80 82 82 80 79 73 68 68 70 72 73 74 78 75 70 69 69 70 68 67 69 71 73 75 75 75 76 77 76 76
68 69 69 70 71 72 74 75 76 76 75 76 79 77 79 77 78 77 76 75 71 70 69 70 71 72 67 68 66 66 66 66 68 71 73 73 73 73 73 74 74 75 75 75
65 66 66 67 68 69 71 73 73 75 77 76 72 67 65 63 65 64 65 68 70 72 71 72 74 71 64 65 63 63 65 67 68 69 70 70 69 70 71 71 72 74 76 75
62 63 65 65 65 65 66 68 69 70 71 70 66 61 60 59 58 60 63 66 69 71 71 71 72 65 63 64 64 66 68 70 71 70 69 70 70 71 72 73 74 70 71 71
60 60 62 63 63 63 64 63 64 62 56 51 48 50 55 57 52 54 57 61 62 63 62 63 62 61 61 63 65 67 68 68 69 68 69 70 70 71 72 72 70 68 64 63
55 56 56 57 61 62 59 57 55 51 49 49 46 39 34 33 32 37 39 46 53 51 52 52 56 61 65 66 68 69 70 72 72 70 69 68 70 68 64 64 63 65 73 75
51 51 50 49 44 47 49 47 45 44 46 48 48 49 49 45 45 46 47 40 43 47 47 56 58 51 53 58 63 67 71 72 72 71 72 72 72 72 71 69 71 74 75 74
41 42 39 27 25 30 33 36 37 37 34 35 36 38 43 49 60 57 53 52 50 50 54 55 57 58 62 67 69 69 67 68 70 71 71 70 70 69 68 68 68 68 68 70
33 30 31 34 43 37 31 26 28 34 37 37 36 39 40 42 48 57 65 67 65 64 66 68 69 69 65 63 62 61 62 63 63 63 62 64 65 65 64 63 62 64 63 62
Wind_Direction
21 25 27 28 34 35 25 32 47 43 49 52 54 58 54 48 42 39 92 221 233 231 236 238 244 251 255 261 266 274 280 283 284 284 281 278 279 279 277 278 279 281 277 272
1 359 5 12 15 18 22 14 13 20 16 16 18 20 27 39 41 32 15 344 302 282 275 273 272 276 279 281 284 286 287 287 286 287 289 292 293 289 288 285 284 287 281 290
309 317 327 334 346 348 351 351 351 355 351 346 340 335 332 333 333 332 331 321 307 301 296 290 288 284 285 289 292 293 294 294 295 293 290 290 287 285 285 287 288 286 296 290
295 299 299 303 309 313 317 318 315 316 320 324 322 318 309 303 304 302 297 293 292 291 287 280 277 277 280 284 287 289 290 292 297 299 298 298 294 293 296 300 299 301 299 306
285 292 294 293 293 296 300 303 303 297 299 305 303 301 304 304 299 290 286 284 285 282 281 283 285 286 287 289 291 293 296 296 298 299 299 301 298 300 302 302 301 302 303 305
281 283 286 287 289 286 288 289 289 289 293 294 299 292 289 287 287 294 294 289 283 281 280 280 281 281 283 284 286 288 290 293 294 297 293 295 295 301 296 298 299 303 304 304
277 281 284 286 284 283 279 279 279 283 284 287 286 286 284 287 288 288 288 287 287 287 283 281 281 283 285 287 289 292 293 293 294 294 295 292 294 297 294 295 296 296 301 303
276 278 281 282 280 278 279 274 276 275 277 276 278 281 280 278 280 284 284 285 286 283 283 282 280 282 283 283 285 289 291 290 292 295 293 292 297 294 293 296 297 296 298 300
272 275 276 278 275 274 271 268 275 279 274 274 275 275 277 279 278 277 279 281 281 281 282 284 283 283 282 280 280 282 284 285 288 291 289 292 302 294 294 295 299 294 298 300
273 271 274 273 273 271 271 270 271 273 274 273 274 273 271 274 275 275 273 278 282 283 281 277 280 284 286 284 282 284 284 287 290 294 290 291 302 301 296 295 294 298 299 301
270 271 273 274 274 274 272 273 272 270 271 270 271 273 274 274 272 272 274 273 273 277 279 278 278 275 276 278 283 286 286 285 286 287 289 295 299 297 296 295 296 299 300 302
269 271 273 275 275 276 278 275 272 271 271 270 270 274 274 275 274 274 274 272 271 271 275 277 275 275 273 274 275 281 284 285 284 286 289 293 291 291 290 291 293 296 297 297
270 271 271 273 274 275 275 276 273 272 272 269 268 269 272 272 272 272 274 274 270 269 272 273 273 272 273 276 275 278 278 280 282 287 285 288 287 287 290 290 295 295 295 297
269 269 270 270 270 270 271 272 272 270 268 268 270 271 269 272 274 275 273 272 271 269 270 270 271 272 272 272 274 276 279 284 289 285 289 286 286 286 288 291 292 294 297 296
265 266 266 267 268 269 269 268 269 267 268 269 268 270 271 270 272 273 272 272 272 272 270 271 271 270 272 272 273 275 281 283 286 285 285 283 287 288 289 290 292 293 293 294
262 265 267 268 268 267 267 267 268 271 271 269 267 266 270 271 271 273 274 274 274 273 275 274 271 270 271 272 273 275 280 285 285 284 281 282 287 289 289 290 291 292 292 292
264 264 264 265 266 266 264 266 267 267 270 272 269 265 265 267 268 271 274 274 275 276 277 276 275 276 276 276 277 283 283 284 280 281 283 287 288 288 289 291 292 292 291 291
267 266 267 267 267 268 271 274 271 274 276 274 271 267 265 267 268 274 275 273 272 272 274 275 276 276 276 278 283 282 280 278 278 281 284 287 289 289 290 291 291 290 290 291
274 274 274 272 271 271 272 273 273 273 273 273 276 274 273 270 271 273 274 277 276 274 273 272 271 272 275 281 279 278 277 277 278 279 281 282 284 286 287 287 288 289 290 291
270 270 270 271 272 272 270 270 271 271 271 270 273 277 276 275 274 274 275 275 275 274 271 271 269 271 274 275 274 273 274 276 278 280 281 282 284 285 286 288 288 288 289 290
268 268 267 267 267 268 269 268 268 269 269 269 269 269 270 270 269 270 270 271 271 270 271 270 270 272 273 272 272 273 275 275 275 276 278 280 282 283 285 287 287 287 288 288
270 271 271 271 272 271 269 271 272 273 274 274 275 273 270 268 266 263 263 262 264 266 268 268 269 271 269 269 270 271 274 276 277 278 280 283 284 286 286 288 289 289 289 292
271 271 272 273 271 272 273 273 273 271 273 275 278 276 270 266 265 264 261 260 262 265 267 268 270 270 271 271 273 275 277 278 281 284 286 288 289 289 291 292 294 295 294 293
271 271 270 267 270 270 270 268 269 270 271 268 263 253 261 255 252 257 256 261 262 261 265 268 269 274 279 280 278 279 281 284 286 286 287 288 290 292 292 289 289 285 287 291
277 276 272 269 266 262 265 267 269 273 272 272 272 265 255 243 240 235 233 235 235 242 253 263 268 265 263 273 279 280 281 282 284 287 288 288 287 287 288 288 287 287 289 290
288 283 273 258 254 260 266 268 269 269 272 272 266 263 255 246 239 237 235 239 239 244 247 252 257 261 267 272 274 276 278 279 280 280 281 283 286 288 288 287 288 288 287 287
293 293 274 256 250 251 256 262 271 269 266 262 263 265 265 259 258 256 256 260 265 267 265 268 271 274 274 274 276 276 276 277 280 283 286 286 287 288 289 290 289 290 290 290